Location: Pradons
(44.4746°N, 4.3578°E)
Time: 20:25:11
(UTC+00:00)

Cosmos 1703 - Pass Details

Date: 13 August 2020
Orbit: 523 x 541 km, 82.5° (Epoch: 01 October)

Event Time Altitude Azimuth Distance (km) Brightness Sun altitude
Rises 01:30:45 0° 10° (N) 2,709 8.0 -26.5°
Reaches altitude 10° 01:33:56 10° 38° (NE) 1,809 6.9 -26.2°
Maximum altitude 01:35:56 13° 68° (ENE) 1,594 6.3 -26.0°
Drops below altitude 10° 01:37:56 10° 98° (E) 1,798 6.2 -25.8°
Enters shadow 01:39:26 - 114° (ESE) 2,168 6.4 -25.7°
